Погода в Витебске

Погода в Витебске : погода сейчас, прогноз погоды и архив. Всё, что Вы хотите узнать о погоде в Витебске!

Поиск расширенной информации на нашем сайте:

Другие новости

Новости СМИ2

Главная страница сайта

Новости сайта

03.07.2017

Напоминаем, что на нашем специализированном сайте Метеоцентр.Азия вы можете получить высокодетализированные автоматические прогнозы погоды по пунктам России, СНГ и мира в авиационном формате (включающие направление и скорость ветра, видимость, явления погоды, количество и форму облачности, нижнюю и верхнюю границу облачности).

Рекомендуем: Изготовление информационных табличек изготовление табличек ростов.

Погода в Витебске - сегодня

Время (UTC), дата Ветер
(°,м/с) 
Видим.   Явления Облачность Т
(°С)
Тd
(°С)
f(%) Тe
(°С)
Pmin
(гПа)
dP
(гПа)
Po
(мм)
O2
(г/м3)
Тmin Tmax R s Состояние
почвы
18 17.11.17 230 (ЮЗ) 4{12}  6000 м  слаб. дождь  10/10 240 м 
[Frnb|Ns]
+1.7 +0.3 90 1017.6  -0.3  747  299    +3.5  0.8     
21 17.11.17 230 (ЮЗ) 3{11}  6000 м  дымка{снег, дождь}  10/10 180 м 
[St]
+2.1 +1.1 93 +1  1018  0.4  747  299           
00 18.11.17 220 (ЮЗ) 8000 м  дымка{снег, дождь}  9/9 1050 м 
[Sc]
+2.4 +1.1 91 +1  1017.6  -0.3  747  298           
03 18.11.17 220 (ЮЗ) 9000 м  дымка  9/9 870 м 
[Sc]
+2.1 +0.5 89 +1  1017.4  -0.3  747  298      0.4     
06 18.11.17 210 (ЮЗ) 10 км    9/9 900 м 
[Sc]
+2.4 -0.6 81 +1  1017  -0.2  747  298  +1.6    0.4     
09 18.11.17 220 (ЮЗ) 10 км    9/9 930 м 
[Sc]
+2.9 -0.1 81 +2  1016.7  -0.4  746  298           
12 18.11.17 220 (ЮЗ) 10 км    8/5 1000 м средняя 
[Sc|Ac trans]
+3.8 -1.5 68 +3  1014.9  -1.8  745  296           
15 18.11.17 200 (Ю) 10 км    9/9 1080 м 
[Sc]
+2.3 -1.7 75 +2  1013.6  -1.2  744  297           
18 18.11.17 180 (Ю) 10 км    9/9 960 м 
[Sc]
+1.6 -1.9 78 +1  1012.4  -1.3  743  298    +4.2       
21 18.11.17 190 (Ю) 10 км    9/9 1050 м 
[Sc]
+1.6 -1.5 80 +2  1011  -1.4  742  297           
00 19.11.17 170 (Ю) 10 км    9/9 1000 м 
[Sc]
+1.2 -1.4 83 +1  1009.6  -1.4  741  297           
03 19.11.17 180 (Ю) 10 км    9/9 840 м 
[Sc]
+0.4 -1.6 86 1008.1  -1.5  740  298           
06 19.11.17 160 (Ю) 10 км    10/10 300 м 
[St]
-0.5 -2.3 88 1006.9  -1.3  739  298  -0.6         
09 19.11.17 180 (Ю) 10 км  в посл. час ливневой снег  9/9 210 м 
[St]
+1.2 -0.8 86 +1  1006  -0.7  738  296           
12 19.11.17 170 (Ю) 6000 м  слаб. ливневой снег  10/10 150 м 
[Frnb]
+1.1 -0.3 90 1004.8  -1.2  737  296           
15 19.11.17 180 (Ю) 10 км  {ливн. осадки}  9/9 360 м 
[St]
+1.2 -0.5 88 +1  1004.3  -0.5  737  296      0.5     
18 19.11.17 230 (ЮЗ) 4000 м  слаб. снег{ливн. осадки}  10/10 120 м 
[Frnb]
+0.6 -0.2 94 -1  1003.9  -0.3  737  296    +1.6     
21 19.11.17 200 (Ю) 7000 м  в посл. час снег  10/10 150 м 
[St]
+0.9 -0.2 92 1005.1  1.1  738  296           
00 20.11.17 190 (Ю) 8000 м  дымка{снег, дождь}  10/10 180 м 
[St]
+1.5 +0.4 92 +2  1005.8  0.7  738  296           
03 20.11.17 190 (Ю) 8000 м  дымка  10/10 150 м 
[St]
+1.6 +0.2 90 +1  1006.2  0.4  738  296      0.6     
06 20.11.17 180 (Ю) 7000 м  дымка  10/10 180 м 
[St]
+1.6 +0.2 90 1007.1  0.9  739  296  +0.5    0.6     
09 20.11.17 180 (Ю) 10 км    9/9 400 м 
[St]
+1.8 +0.2 89 1007.9  0.8  740  296           
12 20.11.17 180 (Ю) 10 км    9/4 600 м средняя 
[Sc|Ac trans]
+2.7 +0 82 +1  1008  0.2  740  295           
15 20.11.17 170 (Ю) 10 км    9/9 800 м 
[Sc]
+2.1 -0.1 85 +1  1008.4  0.4  740  296           
18 20.11.17 170 (Ю) 10 км    9/0 средняя 
[Ac trans]
+1.4 -0.8 85 +1  1008.6  0.1  740  297    +3.1       
Время (UTC), дата Ветер
(°,м/с) 
Видим.   Явления Облачность Т
(°С)
Тd
(°С)
f(%) Тe
(°С)
Pmin
(гПа)
dP
(гПа)
Po
(мм)
O2
(г/м3)
Тmin Tmax R s Состояние
почвы

Для получения пояснительной информации подведите курсор к названию столбца.

ПОГОДА в Витебске - архив

Всё, что Вы хотите узнать о погоде в Витебске - удобно и подробно!

Выберите нужную дату (начиная с 1 января 2015* года) и нажмите кнопку "Найти".
Будут отображены архивные сводки погоды по пункту Витебск, начиная с указанной даты.


Отображать данные в формате CSV (для использования в таблицах Excel)


Внимание! Наш архив погоды предназначен исключительно для личного некоммерческого использования в познавательных целях. Если Вам необходимы официальные справки о состоянии погоды (для производственных, юридических, коммерческих и т.п. целей), обращайтесь в органы Росгидромета.

*Примечание: данная дата относится к архиву по метеостанциям СССР (Россия, СНГ, Балтия).
Архив по метеостанциям Зарубежной Европы и Азии (кроме Китая) хранится 10 дней, по другим регионам земного шара (Китай, Африка, Америка, Австралия, Океания) - 1 день.

Витебск - район местоположения метеостанции


Название, широта, долгота, высота метеостанции:
Витебск (город) 55.1°ш. 30.3°д. 170 м над ур. моря [Беларусь]

Дополнительная информация

В oтличие oт бoльшинства пoгoдных сайтoв мы публикуем пoдрoбную метеoинфoрмацию в детальнoм прoфессиoнальнoм фoрмате.

Характеристики температуры и влажнoсти вoздуха измеряются на высoте 2 м в тени вдали oт зданий и деревьев.
Скoрoсть ветра измеряется на высoте 10 м (на урoвне рoста челoвека скoрoсть ветра ниже в 1.5-2 раза). Если метеoстанция нахoдится в гoрoде или в лесу, тo скoрoсть ветра занижена на 2-4 м/с пo сравнению с oткрытым местoм. Скoрoсть ветра над акватoриями крупных рек и oзёр, а также на вершинах хoлмoв на 2-5 м/с выше, чем в oбычных услoвиях.
Атмoсфернoе давление в разных тoчках местнoсти мoжет значительнo oтличаться oт давления на метеoстанции, в зависимoсти oт услoвий рельефа (при пoдъёме на 10 м давление пoнижается примернo на 1 мм рт.ст.).